KE9LZ Weather Reports


time (UTC)temp
C
wind
direction
speed
KPH
gust
KPH
rain 1hr
cm
rain 24hr
cm
rain mn
cm
humidity
%
barometer
mb
20260904030005 20 109 6.4 9.7 0.15 1.37 1.37 98 1018.1
20260904025004 21 111 4.8 8.0 0.10 1.32 1.32 96 1019.0
20260904024005 21 107 3.2 3.2 0.05 1.27 1.27 96 1019.4
20260904023004 21 139 1.6 3.2 0.00 1.22 1.22 95 1019.3
20260904022004 21 42 1.6 8.0 0.00 1.22 1.22 95 1019.1
20260904021004 21 71 1.6 4.8 0.00 1.22 1.22 95 1018.8
20260904015004 21 69 3.2 8.0 0.00 1.22 1.22 95 1018.3
20260904014004 21 108 3.2 8.0 0.00 1.22 1.22 95 1017.9
20260904013003 21 105 3.2 4.8 0.00 1.22 1.22 95 1017.9
20260904012004 21 100 4.8 11.3 0.00 1.22 1.22 95 1017.4
20260904011004 22 74 1.6 3.2 0.00 1.22 1.22 95 1017.3
20260904010003 22 111 3.2 4.8 0.00 1.22 1.22 95 1017.3
20260904005003 22 80 1.6 4.8 0.00 1.22 1.22 94 1017.0
20260904004002 22 101 1.6 8.0 0.00 1.22 1.22 94 1017.1
20260904003003 22 67 3.2 8.0 0.00 1.22 1.22 94 1017.3
20260904002003 22 25 3.2 8.0 0.00 1.22 1.22 94 1017.2
20260904001003 22 19 3.2 8.0 0.00 1.22 1.22 93 1017.4
20260904000003 22 76 3.2 4.8 0.00 1.22 1.22 92 1017.3
20260903235002 22 50 1.6 11.3 0.00 1.22 1.22 91 1017.1
20260903234002 22 67 3.2 8.0 0.00 1.22 1.22 91 1016.9
20260903232002 23 66 3.2 11.3 0.00 1.22 1.22 91 1017.1
20260903231002 23 335 4.8 11.3 0.00 1.22 1.22 90 1017.5
20260903230004 23 29 4.8 14.5 0.00 1.22 1.22 90 1017.2
20260903225003 23 9 8.0 14.5 0.00 1.22 1.22 89 1016.9
20260903221003 24 5 8.0 11.3 0.00 1.22 1.22 87 1016.9
20260903215003 25 20 4.8 8.0 0.00 1.22 1.22 85 1016.6
20260903214003 26 28 3.2 8.0 0.00 1.22 1.22 84 1016.3
20260903213003 26 10 6.4 11.3 0.00 1.22 1.22 83 1016.1
20260903211003 26 30 3.2 12.9 0.00 1.22 1.22 83 1016.0
20260903210003 25 4 8.0 12.9 0.00 1.22 1.22 86 1016.4
20260903205003 25 359 6.4 14.5 0.00 1.22 1.22 87 1016.5
20260903204003 25 5 4.8 14.5 0.00 1.22 1.22 87 1016.5
20260903203003 26 7 8.0 11.3 0.00 1.22 1.22 85 1016.8
20260903202003 26 9 8.0 14.5 0.00 1.22 1.22 82 1016.6
20260903201003 27 15 4.8 11.3 0.00 1.22 1.22 78 1016.6
20260903200004 26 316 4.8 9.7 0.00 1.22 1.22 80 1017.1
20260903195002 26 101 3.2 8.0 0.00 1.22 1.22 79 1017.1
20260903193003 26 220 4.8 12.9 0.00 1.22 1.22 81 1017.0
20260903192003 26 66 3.2 11.3 0.00 1.22 1.22 83 1016.9
20260903191002 26 204 6.4 8.0 0.00 1.22 1.22 82 1017.0
20260903190002 25 191 3.2 11.3 0.00 1.22 1.22 85 1017.1
20260903183003 24 115 1.6 8.0 0.00 1.22 1.22 89 1017.1
20260903182003 24 71 3.2 8.0 0.00 1.22 1.22 89 1017.1
20260903180003 23 205 3.2 4.8 0.00 1.22 1.22 91 1017.9
20260903175002 22 112 1.6 4.8 0.00 1.22 1.22 96 1017.6
20260903174003 22 73 1.6 3.2 0.00 1.22 1.22 96 1018.1
20260903173003 22 80 1.6 9.7 0.00 1.22 1.22 97 1017.6
20260903172003 22 48 1.6 8.0 0.00 1.22 1.22 98 1017.0
20260903171003 22 10 8.0 14.5 0.00 1.22 1.22 99 1017.0
20260903170004 22 18 1.6 8.0 0.00 1.22 1.22 99 1016.7
20260903165003 21 82 1.6 8.0 0.10 1.22 1.22 99 1016.4
20260903164003 21 86 3.2 9.7 0.56 1.22 1.22 99 1016.9
20260903163003 21 21 3.2 12.9 0.69 1.22 1.22 99 1017.2
20260903162003 21 35 3.2 9.7 0.69 1.22 1.22 99 1017.4
20260903161003 20 37 3.2 8.0 0.79 1.22 1.22 99 1017.7
20260903160002 20 335 1.6 8.0 1.04 1.22 1.22 99 1017.7
20260903155002 20 97 3.2 9.7 1.12 1.12 1.12 99 1018.2
20260903154002 20 135 3.2 8.0 0.64 0.64 0.64 99 1018.3
20260903153003 20 304 4.8 9.7 0.51 0.51 0.51 99 1018.2
20260903152003 20 324 4.8 8.0 0.51 0.51 0.51 98 1017.3
20260903151002 20 89 4.8 11.3 0.43 0.43 0.43 97 1017.6
20260903150003 21 246 1.6 4.8 0.18 0.18 0.18 94 1017.0
20260903145002 22 280 3.2 4.8 0.00 0.00 0.00 89 1016.9
20260903144003 22 85 3.2 8.0 0.00 0.00 0.00 89 1016.4
20260903142003 22 126 1.6 3.2 0.00 0.00 0.00 86 1016.8
20260903141003 22 77 1.6 8.0 0.00 0.00 0.00 85 1016.8
20260903140003 22 99 3.2 8.0 0.00 0.00 0.00 85 1016.9
20260903135003 22 44 3.2 4.8 0.00 0.00 0.00 85 1016.9
20260903134002 22 93 3.2 4.8 0.00 0.00 0.00 87 1016.5
20260903133003 22 93 3.2 8.0 0.00 0.00 0.00 87 1016.5
20260903132003 22 61 1.6 8.0 0.00 0.00 0.00 88 1016.3
20260903131002 22 89 3.2 8.0 0.00 0.03 0.00 90 1016.1
20260903130002 21 84 4.8 11.3 0.00 0.05 0.00 92 1016.1
20260903125003 21 66 3.2 11.3 0.00 0.05 0.00 95 1016.0
20260903124003 21 57 11.3 19.3 0.00 0.05 0.00 96 1016.4
20260903122002 21 129 4.8 11.3 0.00 0.05 0.00 97 1016.5
20260903121003 21 110 3.2 9.7 0.00 0.05 0.00 97 1016.5
20260903120003 21 92 3.2 8.0 0.00 0.05 0.00 97 1016.1
20260903115003 20 94 3.2 9.7 0.00 0.05 0.00 97 1016.2
20260903114003 20 100 3.2 8.0 0.00 0.05 0.00 97 1016.5
20260903113003 20 63 3.2 11.3 0.00 0.05 0.00 97 1016.4
20260903112003 20 86 4.8 14.5 0.00 0.05 0.00 96 1016.6
20260903111002 20 358 4.8 8.0 0.00 0.05 0.00 96 1016.5
20260903110003 20 67 3.2 4.8 0.00 0.05 0.00 96 1016.4
20260903105003 20 20 3.2 4.8 0.00 0.05 0.00 96 1016.7
20260903104002 21 93 4.8 8.0 0.00 0.05 0.00 96 1016.3
20260903103003 21 85 1.6 3.2 0.00 0.08 0.00 96 1016.3
20260903102003 21 92 3.2 3.2 0.00 0.15 0.00 96 1016.5
20260903101003 21 103 1.6 3.2 0.00 0.84 0.00 96 1016.5
20260903095003 21 98 0.0 3.2 0.00 0.97 0.00 95 1016.3
20260903094003 21 56 1.6 3.2 0.00 0.99 0.00 95 1016.2
20260903093003 21 17 1.6 8.0 0.00 1.17 0.00 95 1016.1
20260903092003 21 21 1.6 3.2 0.00 1.17 0.00 96 1016.1
20260903091003 21 259 0.0 3.2 0.00 1.17 0.00 96 1016.2
20260903090003 21 45 3.2 3.2 0.00 1.17 0.00 97 1016.1
20260903085003 20 81 0.0 1.6 0.00 1.17 0.00 97 1015.8
20260903084004 20 24 0.0 3.2 0.00 1.17 0.00 97 1015.8
20260903083003 20 60 1.6 1.6 0.00 1.17 0.00 98 1016.0
20260903082003 20 73 0.0 3.2 0.00 1.17 0.00 98 1016.2
20260903081003 20 141 1.6 3.2 0.00 1.17 0.00 99 1016.3
20260903080003 20 59 0.0 3.2 0.00 1.17 0.00 98 1016.3
20260903075003 20 76 0.0 1.6 0.00 1.17 0.00 98 1016.1
20260903074003 20 125 0.0 1.6 0.00 1.17 0.00 98 1016.2
20260903073003 20 91 1.6 3.2 0.00 1.17 0.00 98 1016.4
20260903072002 20 77 0.0 1.6 0.00 1.17 0.00 97 1016.3
20260903071003 20 102 1.6 1.6 0.00 1.17 0.00 97 1016.3
20260903070002 20 112 0.0 3.2 0.00 1.17 0.00 96 1016.4
20260903065003 21 65 1.6 3.2 0.00 1.17 0.00 96 1016.5
20260903064003 21 85 3.2 4.8 0.00 1.17 0.00 96 1016.7
20260903063002 20 114 3.2 3.2 0.00 1.17 0.00 97 1016.7
20260903062003 20 80 1.6 3.2 0.00 1.17 0.00 97 1016.8
20260903061002 20 152 1.6 3.2 0.00 1.17 0.00 97 1016.8
20260903060003 20 104 1.6 1.6 0.00 1.17 0.00 97 1016.6
20260903055003 20 116 0.0 1.6 0.00 1.17 0.00 97 1016.5
20260903053003 21 125 0.0 1.6 0.00 1.17 0.00 96 1016.6
20260903051004 21 85 1.6 3.2 0.00 1.17 0.00 95 1016.5
20260903050004 21 59 1.6 1.6 0.00 1.17 0.00 94 1016.6
20260903045003 21 68 1.6 1.6 0.00 1.17 1.17 94 1016.4
20260903044004 21 102 1.6 3.2 0.00 1.17 1.17 93 1016.4
20260903042003 21 105 1.6 4.8 0.00 1.17 1.17 93 1016.4
20260903041003 21 85 3.2 4.8 0.00 1.17 1.17 93 1016.3
20260903040002 22 93 1.6 4.8 0.00 1.17 1.17 92 1016.5
20260903035003 22 89 1.6 4.8 0.00 1.17 1.17 92 1016.6
20260903034003 22 85 1.6 3.2 0.00 1.17 1.17 93 1016.7
20260903033003 22 84 1.6 3.2 0.00 1.17 1.17 93 1016.7
20260903032003 22 88 3.2 3.2 0.00 1.17 1.17 92 1016.9
20260903031003 22 70 1.6 4.8 0.00 1.17 1.17 92 1016.8